Location: Lombard
(41.8800°N, 88.0080°W)
Time: 06:57:13
(UTC-05:00)

A-11 Canister half - Pass Details

Date: 25 April 2025
Orbit: 1514 x 1685 km, 47.2° (Epoch: 13 May)

Event Time Altitude Azimuth Distance (km) Brightness Sun altitude
Rises 04:17:41 0° 176° (S) 4,656 11.2 -17.0°
Reaches altitude 10° 04:22:30 10° 155° (SSE) 3,667 10.9 -16.3°
Maximum altitude 04:27:07 15° 124° (SE) 3,286 11.0 -15.6°
Drops below altitude 10° 04:31:44 10° 93° (E) 3,678 11.8 -14.9°
Sets 04:36:32 0° 72° (ENE) 4,679 13.2 -14.1°
